| time (UTC) | temp C | wind direction | speed KPH | gust KPH | rain 1hr cm | rain 24hr cm | rain mn cm | humidity % | barometer mb |
| 20260906132054 | 27 | 235 | 6.4 | 14.5 | 0.00 | 0.00 | 0.00 | 83 | 1004.7 |
| 20260906131553 | 27 | 271 | 4.8 | 14.5 | 0.00 | 0.00 | 0.00 | 84 | 1004.8 |
| 20260906131053 | 27 | 246 | 4.8 | 14.5 | 0.00 | 0.00 | 0.00 | 85 | 1004.8 |
| 20260906130552 | 27 | 244 | 6.4 | 14.5 | 0.00 | 0.00 | 0.00 | 84 | 1004.9 |
| 20260906125548 | 26 | 248 | 4.8 | 16.1 | 0.00 | 0.00 | 0.00 | 86 | 1004.7 |
| 20260906125046 | 26 | 257 | 4.8 | 16.1 | 0.00 | 0.00 | 0.00 | 87 | 1004.7 |
| 20260906124548 | 26 | 256 | 3.2 | 11.3 | 0.00 | 0.00 | 0.00 | 87 | 1004.7 |
| 20260906124044 | 26 | 252 | 3.2 | 11.3 | 0.00 | 0.00 | 0.00 | 88 | 1004.7 |
| 20260906123543 | 26 | 253 | 3.2 | 11.3 | 0.00 | 0.00 | 0.00 | 89 | 1004.6 |
| 20260906123041 | 25 | 245 | 1.6 | 11.3 | 0.00 | 0.00 | 0.00 | 89 | 1004.5 |
| 20260906122541 | 25 | 251 | 4.8 | 11.3 | 0.00 | 0.00 | 0.00 | 89 | 1004.6 |
| 20260906122037 | 25 | 248 | 3.2 | 8.0 | 0.00 | 0.00 | 0.00 | 90 | 1004.6 |
| 20260906121537 | 25 | 265 | 1.6 | 9.7 | 0.00 | 0.00 | 0.00 | 90 | 1004.6 |
| 20260906121035 | 25 | 246 | 3.2 | 8.0 | 0.00 | 0.00 | 0.00 | 90 | 1004.6 |
| 20260906120535 | 25 | 248 | 1.6 | 8.0 | 0.00 | 0.00 | 0.00 | 90 | 1004.6 |
| 20260906120032 | 25 | 240 | 3.2 | 8.0 | 0.00 | 0.00 | 0.00 | 91 | 1004.5 |
| 20260906115531 | 25 | 277 | 4.8 | 9.7 | 0.00 | 0.00 | 0.00 | 91 | 1004.5 |
| 20260906115030 | 25 | 252 | 1.6 | 4.8 | 0.00 | 0.00 | 0.00 | 91 | 1004.4 |
| 20260906114529 | 24 | 252 | 0.0 | 6.4 | 0.00 | 0.00 | 0.00 | 91 | 1004.4 |
| 20260906114027 | 24 | 252 | 1.6 | 8.0 | 0.00 | 0.00 | 0.00 | 91 | 1004.4 |
| 20260906113526 | 24 | 252 | 1.6 | 9.7 | 0.00 | 0.00 | 0.00 | 91 | 1004.3 |
| 20260906113025 | 24 | 272 | 3.2 | 9.7 | 0.00 | 0.00 | 0.00 | 91 | 1004.4 |
| 20260906112524 | 24 | 272 | 4.8 | 6.4 | 0.00 | 0.00 | 0.00 | 91 | 1004.3 |
| 20260906112022 | 24 | 271 | 4.8 | 9.7 | 0.00 | 0.00 | 0.00 | 90 | 1004.2 |
| 20260906111522 | 24 | 269 | 0.0 | 4.8 | 0.00 | 0.00 | 0.00 | 90 | 1004.2 |
| 20260906111021 | 24 | 256 | 0.0 | 6.4 | 0.00 | 0.00 | 0.00 | 90 | 1004.2 |
| 20260906110522 | 25 | 254 | 0.0 | 8.0 | 0.00 | 0.00 | 0.00 | 90 | 1004.1 |
| 20260906110023 | 25 | 254 | 3.2 | 11.3 | 0.00 | 0.00 | 0.00 | 90 | 1003.9 |
| 20260906105521 | 25 | 244 | 3.2 | 11.3 | 0.00 | 0.00 | 0.00 | 90 | 1003.8 |
| 20260906105023 | 25 | 244 | 3.2 | 8.0 | 0.00 | 0.00 | 0.00 | 90 | 1003.8 |
| 20260906104521 | 25 | 245 | 3.2 | 8.0 | 0.00 | 0.00 | 0.00 | 90 | 1003.6 |
| 20260906104020 | 25 | 248 | 1.6 | 4.8 | 0.00 | 0.00 | 0.00 | 90 | 1003.5 |
| 20260906103520 | 25 | 248 | 1.6 | 6.4 | 0.00 | 0.00 | 0.00 | 90 | 1003.4 |
| 20260906103040 | 25 | 248 | 1.6 | 6.4 | 0.00 | 0.00 | 0.00 | 89 | 1003.3 |
| 20260906102522 | 25 | 248 | 1.6 | 4.8 | 0.00 | 0.00 | 0.00 | 89 | 1003.4 |
| 20260906102019 | 25 | 248 | 0.0 | 4.8 | 0.00 | 0.00 | 0.00 | 89 | 1003.4 |
| 20260906101519 | 25 | 248 | 0.0 | 0.0 | 0.00 | 0.00 | 0.00 | 89 | 1003.4 |
| 20260906101023 | 25 | 248 | 0.0 | 0.0 | 0.00 | 0.00 | 0.00 | 89 | 1003.4 |
| 20260906100519 | 25 | 248 | 0.0 | 4.8 | 0.00 | 0.00 | 0.00 | 89 | 1003.4 |
| 20260906100026 | 25 | 248 | 0.0 | 6.4 | 0.00 | 0.00 | 0.00 | 89 | 1003.4 |
| 20260906095518 | 25 | 248 | 3.2 | 6.4 | 0.00 | 0.00 | 0.00 | 89 | 1003.3 |
| 20260906095120 | 25 | 248 | 1.6 | 4.8 | 0.00 | 0.00 | 0.00 | 89 | 1003.4 |
| 20260906094518 | 25 | 248 | 0.0 | 4.8 | 0.00 | 0.00 | 0.00 | 89 | 1003.3 |
| 20260906094017 | 25 | 248 | 1.6 | 4.8 | 0.00 | 0.00 | 0.00 | 89 | 1003.3 |
| 20260906093517 | 25 | 248 | 1.6 | 8.0 | 0.00 | 0.00 | 0.00 | 89 | 1003.2 |
| 20260906093019 | 25 | 248 | 3.2 | 8.0 | 0.00 | 0.00 | 0.00 | 89 | 1003.1 |
| 20260906092521 | 25 | 256 | 3.2 | 4.8 | 0.00 | 0.00 | 0.00 | 89 | 1003.1 |
| 20260906092017 | 25 | 256 | 1.6 | 4.8 | 0.00 | 0.00 | 0.00 | 89 | 1003.1 |
| 20260906091516 | 25 | 256 | 0.0 | 3.2 | 0.00 | 0.00 | 0.00 | 89 | 1003.2 |
| 20260906091016 | 25 | 256 | 0.0 | 3.2 | 0.00 | 0.00 | 0.00 | 89 | 1003.0 |
| 20260906090517 | 25 | 256 | 0.0 | 4.8 | 0.00 | 0.00 | 0.00 | 89 | 1003.1 |
| 20260906090016 | 25 | 256 | 1.6 | 4.8 | 0.00 | 0.00 | 0.00 | 89 | 1003.1 |
| 20260906085515 | 25 | 256 | 0.0 | 3.2 | 0.00 | 0.00 | 0.00 | 89 | 1003.0 |
| 20260906085015 | 25 | 256 | 0.0 | 4.8 | 0.00 | 0.00 | 0.00 | 89 | 1002.9 |
| 20260906084515 | 25 | 256 | 1.6 | 4.8 | 0.00 | 0.00 | 0.00 | 89 | 1003.0 |
| 20260906084020 | 25 | 256 | 0.0 | 3.2 | 0.00 | 0.00 | 0.00 | 89 | 1003.0 |
| 20260906083515 | 25 | 256 | 0.0 | 4.8 | 0.00 | 0.00 | 0.00 | 89 | 1002.9 |
| 20260906083016 | 25 | 257 | 1.6 | 4.8 | 0.00 | 0.00 | 0.00 | 89 | 1003.0 |
| 20260906082518 | 25 | 257 | 1.6 | 4.8 | 0.00 | 0.00 | 0.00 | 89 | 1003.0 |
| 20260906082015 | 25 | 257 | 1.6 | 4.8 | 0.00 | 0.00 | 0.00 | 89 | 1003.0 |
| 20260906081513 | 25 | 257 | 0.0 | 4.8 | 0.00 | 0.00 | 0.00 | 89 | 1003.0 |
| 20260906081014 | 25 | 257 | 0.0 | 4.8 | 0.00 | 0.00 | 0.00 | 89 | 1002.9 |
| 20260906080514 | 25 | 257 | 1.6 | 4.8 | 0.00 | 0.00 | 0.00 | 89 | 1003.0 |
| 20260906080013 | 25 | 257 | 0.0 | 6.4 | 0.00 | 0.00 | 0.00 | 89 | 1003.0 |
| 20260906075514 | 25 | 256 | 1.6 | 6.4 | 0.00 | 0.00 | 0.00 | 89 | 1002.9 |
| 20260906075013 | 25 | 256 | 3.2 | 6.4 | 0.00 | 0.00 | 0.00 | 89 | 1003.0 |
| 20260906074513 | 25 | 255 | 3.2 | 6.4 | 0.00 | 0.00 | 0.00 | 89 | 1003.0 |
| 20260906074012 | 25 | 254 | 1.6 | 4.8 | 0.00 | 0.00 | 0.00 | 89 | 1003.0 |
| 20260906073513 | 25 | 254 | 1.6 | 4.8 | 0.00 | 0.00 | 0.00 | 89 | 1003.0 |
| 20260906073012 | 25 | 254 | 0.0 | 4.8 | 0.00 | 0.00 | 0.00 | 89 | 1003.0 |
| 20260906072512 | 25 | 257 | 3.2 | 4.8 | 0.00 | 0.00 | 0.00 | 89 | 1003.0 |
| 20260906072011 | 25 | 257 | 1.6 | 4.8 | 0.00 | 0.00 | 0.00 | 88 | 1003.1 |
| 20260906071510 | 25 | 257 | 1.6 | 4.8 | 0.00 | 0.00 | 0.00 | 88 | 1003.2 |
| 20260906071011 | 25 | 257 | 1.6 | 4.8 | 0.00 | 0.00 | 0.00 | 88 | 1003.2 |
| 20260906070510 | 25 | 257 | 3.2 | 4.8 | 0.00 | 0.00 | 0.00 | 88 | 1003.3 |
| 20260906070009 | 25 | 257 | 3.2 | 4.8 | 0.00 | 0.00 | 0.00 | 88 | 1003.2 |
| 20260906065509 | 25 | 257 | 1.6 | 4.8 | 0.00 | 0.00 | 0.00 | 88 | 1003.2 |
| 20260906065009 | 25 | 257 | 3.2 | 4.8 | 0.00 | 0.00 | 0.00 | 87 | 1003.2 |
| 20260906064508 | 25 | 257 | 0.0 | 4.8 | 0.00 | 0.00 | 0.00 | 87 | 1003.4 |
| 20260906064008 | 25 | 257 | 0.0 | 4.8 | 0.00 | 0.00 | 0.00 | 87 | 1003.4 |
| 20260906063512 | 25 | 257 | 1.6 | 4.8 | 0.00 | 0.00 | 0.00 | 86 | 1003.3 |
| 20260906063006 | 25 | 257 | 1.6 | 6.4 | 0.00 | 0.00 | 0.00 | 86 | 1003.3 |
| 20260906062505 | 25 | 257 | 3.2 | 6.4 | 0.00 | 0.00 | 0.00 | 86 | 1003.3 |
| 20260906062004 | 25 | 257 | 1.6 | 4.8 | 0.00 | 0.00 | 0.00 | 86 | 1003.4 |
| 20260906061509 | 25 | 261 | 1.6 | 6.4 | 0.00 | 0.00 | 0.00 | 86 | 1003.4 |
| 20260906061003 | 25 | 261 | 1.6 | 6.4 | 0.00 | 0.00 | 0.00 | 86 | 1003.6 |
| 20260906060503 | 25 | 262 | 1.6 | 6.4 | 0.00 | 0.00 | 0.00 | 86 | 1003.6 |
| 20260906060004 | 25 | 268 | 1.6 | 9.7 | 0.00 | 0.00 | 0.00 | 86 | 1003.6 |
| 20260906055503 | 25 | 274 | 4.8 | 9.7 | 0.00 | 0.00 | 0.00 | 86 | 1003.5 |
| 20260906055004 | 25 | 246 | 3.2 | 8.0 | 0.00 | 0.00 | 0.00 | 85 | 1003.6 |
| 20260906054508 | 26 | 225 | 1.6 | 8.0 | 0.00 | 0.00 | 0.00 | 85 | 1003.5 |
| 20260906054002 | 26 | 233 | 1.6 | 8.0 | 0.00 | 0.00 | 0.00 | 85 | 1003.5 |
| 20260906053501 | 26 | 224 | 1.6 | 8.0 | 0.00 | 0.00 | 0.00 | 85 | 1003.6 |
| 20260906053002 | 26 | 224 | 3.2 | 9.7 | 0.00 | 0.00 | 0.00 | 85 | 1003.6 |
| 20260906052502 | 26 | 211 | 3.2 | 9.7 | 0.00 | 0.00 | 0.00 | 85 | 1003.5 |
| 20260906052001 | 26 | 251 | 3.2 | 6.4 | 0.00 | 0.00 | 0.00 | 85 | 1003.7 |
| 20260906051500 | 26 | 261 | 1.6 | 6.4 | 0.00 | 0.00 | 0.00 | 85 | 1003.8 |
| 20260906051100 | 26 | 261 | 3.2 | 6.4 | 0.00 | 0.00 | 0.00 | 84 | 1003.8 |
| 20260906050559 | 26 | 264 | 3.2 | 6.4 | 0.00 | 0.00 | 0.00 | 84 | 1003.6 |
| 20260906050100 | 26 | 272 | 1.6 | 6.4 | 0.00 | 0.00 | 0.00 | 85 | 1003.7 |
| 20260906045603 | 26 | 272 | 1.6 | 9.7 | 0.00 | 0.00 | 0.00 | 84 | 1003.7 |
| 20260906045059 | 26 | 271 | 4.8 | 9.7 | 0.00 | 0.00 | 0.00 | 84 | 1003.6 |
| 20260906044558 | 26 | 254 | 1.6 | 6.4 | 0.00 | 0.00 | 0.00 | 84 | 1003.4 |
| 20260906044058 | 26 | 257 | 3.2 | 8.0 | 0.00 | 0.00 | 0.00 | 84 | 1003.6 |
| 20260906043600 | 26 | 257 | 3.2 | 8.0 | 0.00 | 0.00 | 0.00 | 84 | 1003.6 |
| 20260906043056 | 26 | 240 | 1.6 | 8.0 | 0.00 | 0.00 | 0.00 | 83 | 1003.8 |
| 20260906042556 | 26 | 242 | 3.2 | 6.4 | 0.00 | 0.00 | 0.00 | 83 | 1003.8 |
| 20260906042055 | 26 | 243 | 3.2 | 6.4 | 0.00 | 0.00 | 0.00 | 83 | 1003.8 |
| 20260906041554 | 26 | 200 | 3.2 | 8.0 | 0.00 | 0.00 | 0.00 | 83 | 1003.9 |
| 20260906041056 | 26 | 199 | 3.2 | 8.0 | 0.00 | 0.00 | 0.00 | 83 | 1003.9 |
| 20260906040552 | 26 | 219 | 4.8 | 8.0 | 0.00 | 0.00 | 0.00 | 83 | 1004.0 |
| 20260906040051 | 26 | 213 | 1.6 | 4.8 | 0.00 | 0.00 | 0.00 | 82 | 1004.3 |
| 20260906035551 | 26 | 212 | 1.6 | 8.0 | 0.00 | 0.00 | 0.00 | 82 | 1004.3 |
| 20260906035051 | 26 | 207 | 4.8 | 8.0 | 0.00 | 0.00 | 0.00 | 82 | 1004.3 |
| 20260906034601 | 26 | 198 | 1.6 | 6.4 | 0.00 | 0.00 | 0.00 | 82 | 1004.5 |
| 20260906034051 | 26 | 197 | 3.2 | 9.7 | 0.00 | 0.00 | 0.00 | 82 | 1004.4 |
| 20260906033552 | 26 | 196 | 3.2 | 9.7 | 0.00 | 0.00 | 0.00 | 81 | 1004.4 |
| 20260906033054 | 27 | 186 | 3.2 | 8.0 | 0.00 | 0.00 | 0.00 | 81 | 1004.3 |
| 20260906032551 | 27 | 194 | 3.2 | 6.4 | 0.00 | 0.00 | 0.00 | 81 | 1004.4 |
| 20260906032051 | 27 | 195 | 3.2 | 6.4 | 0.00 | 0.00 | 0.00 | 81 | 1004.4 |
| 20260906031550 | 26 | 211 | 3.2 | 6.4 | 0.00 | 0.00 | 0.00 | 82 | 1004.6 |
| 20260906031054 | 26 | 213 | 3.2 | 4.8 | 0.00 | 0.00 | 0.00 | 82 | 1004.8 |
| 20260906030550 | 27 | 213 | 3.2 | 4.8 | 0.00 | 0.00 | 0.00 | 81 | 1004.8 |
| 20260906030050 | 27 | 213 | 1.6 | 6.4 | 0.00 | 0.00 | 0.00 | 81 | 1004.8 |
| 20260906025549 | 27 | 213 | 3.2 | 8.0 | 0.00 | 0.00 | 0.00 | 81 | 1004.9 |
| 20260906025050 | 27 | 213 | 4.8 | 9.7 | 0.00 | 0.00 | 0.00 | 81 | 1004.8 |
| 20260906024549 | 27 | 212 | 4.8 | 9.7 | 0.00 | 0.00 | 0.00 | 81 | 1004.8 |
| 20260906024051 | 27 | 211 | 1.6 | 4.8 | 0.00 | 0.00 | 0.00 | 81 | 1004.7 |
| 20260906023549 | 27 | 211 | 3.2 | 4.8 | 0.00 | 0.00 | 0.00 | 81 | 1004.7 |
| 20260906023051 | 27 | 210 | 1.6 | 6.4 | 0.00 | 0.00 | 0.00 | 81 | 1004.7 |
| 20260906022552 | 27 | 208 | 3.2 | 6.4 | 0.00 | 0.00 | 0.00 | 80 | 1004.7 |
| 20260906022049 | 27 | 205 | 3.2 | 6.4 | 0.00 | 0.00 | 0.00 | 80 | 1004.6 |
| 20260906021549 | 27 | 202 | 1.6 | 6.4 | 0.00 | 0.00 | 0.00 | 80 | 1004.5 |
| 20260906021048 | 27 | 202 | 1.6 | 4.8 | 0.00 | 0.00 | 0.00 | 80 | 1004.4 |
| 20260906020548 | 27 | 202 | 1.6 | 3.2 | 0.00 | 0.00 | 0.00 | 80 | 1004.2 |
| 20260906020049 | 27 | 202 | 1.6 | 4.8 | 0.00 | 0.00 | 0.00 | 80 | 1004.1 |
| 20260906015548 | 27 | 202 | 1.6 | 8.0 | 0.00 | 0.03 | 0.00 | 79 | 1004.0 |
| 20260906015048 | 27 | 202 | 1.6 | 8.0 | 0.00 | 0.03 | 0.00 | 79 | 1003.9 |
| 20260906014553 | 27 | 208 | 3.2 | 9.7 | 0.00 | 0.03 | 0.00 | 79 | 1003.7 |
| 20260906014047 | 27 | 204 | 3.2 | 9.7 | 0.00 | 0.03 | 0.00 | 79 | 1003.6 |
| 20260906013548 | 27 | 182 | 3.2 | 9.7 | 0.00 | 0.03 | 0.00 | 79 | 1003.5 |
| 20260906013048 | 27 | 190 | 4.8 | 11.3 | 0.00 | 0.03 | 0.00 | 79 | 1003.4 |
| 20260906012547 | 27 | 215 | 4.8 | 11.3 | 0.00 | 0.03 | 0.00 | 78 | 1003.4 |
| 20260906012047 | 27 | 209 | 6.4 | 11.3 | 0.00 | 0.03 | 0.00 | 78 | 1003.4 |
| 20260906011547 | 27 | 213 | 4.8 | 9.7 | 0.00 | 0.03 | 0.00 | 78 | 1003.3 |
| 20260906011048 | 27 | 211 | 4.8 | 9.7 | 0.00 | 0.03 | 0.00 | 78 | 1003.2 |
| 20260906010546 | 27 | 238 | 4.8 | 11.3 | 0.00 | 0.03 | 0.00 | 77 | 1003.3 |
| 20260906010047 | 28 | 271 | 4.8 | 9.7 | 0.00 | 0.03 | 0.00 | 77 | 1003.2 |
| 20260906005546 | 28 | 246 | 4.8 | 11.3 | 0.00 | 0.03 | 0.00 | 76 | 1003.0 |
| 20260906005050 | 28 | 232 | 3.2 | 11.3 | 0.00 | 0.03 | 0.00 | 76 | 1002.8 |
| 20260906004546 | 28 | 202 | 4.8 | 11.3 | 0.00 | 0.03 | 0.00 | 76 | 1002.8 |
| 20260906004046 | 28 | 190 | 6.4 | 11.3 | 0.00 | 0.03 | 0.00 | 76 | 1002.8 |
| 20260906003546 | 28 | 222 | 4.8 | 14.5 | 0.00 | 0.03 | 0.00 | 76 | 1002.6 |
| 20260906003046 | 28 | 245 | 6.4 | 16.1 | 0.00 | 0.03 | 0.00 | 76 | 1002.7 |
| 20260906002546 | 28 | 216 | 8.0 | 16.1 | 0.00 | 0.03 | 0.00 | 76 | 1002.6 |
| 20260906002048 | 28 | 216 | 9.7 | 16.1 | 0.00 | 0.03 | 0.00 | 76 | 1002.6 |
| 20260906001545 | 29 | 246 | 8.0 | 12.9 | 0.00 | 0.03 | 0.00 | 76 | 1002.5 |
| 20260906001045 | 29 | 263 | 6.4 | 12.9 | 0.00 | 0.03 | 0.00 | 76 | 1002.4 |
| 20260906000545 | 29 | 226 | 3.2 | 11.3 | 0.00 | 0.03 | 0.00 | 75 | 1002.4 |
| 20260906000045 | 30 | 215 | 6.4 | 11.3 | 0.00 | 0.03 | 0.00 | 74 | 1002.4 |
| 20260905235544 | 30 | 211 | 4.8 | 12.9 | 0.00 | 0.10 | 0.00 | 74 | 1002.2 |
| 20260905235047 | 30 | 200 | 8.0 | 12.9 | 0.00 | 0.10 | 0.00 | 73 | 1002.4 |
| 20260905234545 | 30 | 181 | 8.0 | 12.9 | 0.00 | 0.10 | 0.00 | 73 | 1002.5 |
| 20260905234044 | 30 | 171 | 4.8 | 8.0 | 0.00 | 0.10 | 0.00 | 72 | 1002.5 |
| 20260905233544 | 30 | 171 | 6.4 | 9.7 | 0.00 | 0.10 | 0.00 | 72 | 1002.6 |
| 20260905233045 | 31 | 183 | 3.2 | 9.7 | 0.00 | 0.10 | 0.00 | 71 | 1002.6 |
| 20260905232544 | 31 | 187 | 4.8 | 11.3 | 0.00 | 0.10 | 0.00 | 71 | 1002.6 |
| 20260905232044 | 31 | 215 | 3.2 | 11.3 | 0.00 | 0.10 | 0.00 | 71 | 1002.5 |
| 20260905231543 | 31 | 198 | 3.2 | 14.5 | 0.00 | 0.10 | 0.00 | 70 | 1002.5 |
| 20260905231041 | 31 | 205 | 4.8 | 14.5 | 0.00 | 0.10 | 0.00 | 69 | 1002.6 |
| 20260905230542 | 31 | 152 | 6.4 | 14.5 | 0.00 | 0.10 | 0.00 | 69 | 1002.7 |
| 20260905230041 | 31 | 188 | 9.7 | 16.1 | 0.00 | 0.10 | 0.00 | 67 | 1002.8 |
| 20260905225542 | 32 | 169 | 9.7 | 16.1 | 0.00 | 0.13 | 0.00 | 65 | 1002.8 |
| 20260905225042 | 32 | 220 | 8.0 | 14.5 | 0.00 | 0.13 | 0.00 | 63 | 1002.7 |
| 20260905224541 | 32 | 216 | 6.4 | 11.3 | 0.00 | 0.13 | 0.00 | 62 | 1002.9 |
| 20260905224040 | 32 | 221 | 6.4 | 11.3 | 0.00 | 0.13 | 0.00 | 61 | 1002.8 |
| 20260905223541 | 32 | 193 | 9.7 | 11.3 | 0.00 | 0.13 | 0.00 | 60 | 1002.9 |
| 20260905223040 | 32 | 242 | 3.2 | 11.3 | 0.00 | 0.13 | 0.00 | 60 | 1002.9 |
| 20260905222541 | 32 | 250 | 6.4 | 11.3 | 0.00 | 0.13 | 0.00 | 61 | 1003.0 |
| 20260905222041 | 32 | 258 | 6.4 | 14.5 | 0.00 | 0.13 | 0.00 | 61 | 1003.1 |
| 20260905221539 | 33 | 227 | 4.8 | 14.5 | 0.00 | 0.13 | 0.00 | 59 | 1003.0 |
| 20260905221040 | 33 | 221 | 4.8 | 11.3 | 0.00 | 0.13 | 0.00 | 59 | 1003.0 |
| 20260905220539 | 33 | 202 | 3.2 | 11.3 | 0.00 | 0.13 | 0.00 | 58 | 1003.0 |
| 20260905220038 | 33 | 202 | 4.8 | 14.5 | 0.00 | 0.13 | 0.00 | 59 | 1002.9 |
| 20260905215539 | 33 | 242 | 8.0 | 14.5 | 0.00 | 0.13 | 0.00 | 59 | 1002.9 |
| 20260905215039 | 33 | 192 | 8.0 | 12.9 | 0.00 | 0.13 | 0.00 | 60 | 1003.0 |
| 20260905214538 | 33 | 275 | 6.4 | 16.1 | 0.00 | 0.13 | 0.00 | 61 | 1003.0 |
| 20260905214038 | 33 | 214 | 9.7 | 16.1 | 0.00 | 0.13 | 0.00 | 60 | 1002.9 |
| 20260905213538 | 33 | 234 | 3.2 | 16.1 | 0.00 | 0.13 | 0.00 | 59 | 1002.8 |
| 20260905213037 | 33 | 237 | 9.7 | 16.1 | 0.00 | 0.13 | 0.00 | 59 | 1003.0 |
| 20260905212539 | 33 | 259 | 4.8 | 16.1 | 0.00 | 0.13 | 0.00 | 59 | 1003.0 |
| 20260905212038 | 33 | 226 | 11.3 | 17.7 | 0.00 | 0.13 | 0.00 | 60 | 1003.1 |
| 20260905211538 | 32 | 258 | 9.7 | 16.1 | 0.00 | 0.13 | 0.00 | 60 | 1003.0 |
| 20260905211036 | 32 | 294 | 3.2 | 11.3 | 0.00 | 0.13 | 0.00 | 64 | 1003.2 |
| 20260905210536 | 32 | 238 | 4.8 | 17.7 | 0.00 | 0.13 | 0.00 | 63 | 1003.2 |
| 20260905210035 | 33 | 263 | 9.7 | 17.7 | 0.00 | 0.13 | 0.00 | 62 | 1003.2 |
| 20260905205535 | 33 | 206 | 4.8 | 12.9 | 0.00 | 0.13 | 0.00 | 62 | 1003.2 |
| 20260905205035 | 32 | 231 | 8.0 | 16.1 | 0.00 | 0.13 | 0.00 | 64 | 1003.0 |
| 20260905204535 | 32 | 302 | 6.4 | 16.1 | 0.00 | 0.13 | 0.00 | 63 | 1003.0 |
| 20260905204034 | 32 | 284 | 9.7 | 16.1 | 0.00 | 0.13 | 0.00 | 63 | 1003.0 |
| 20260905203536 | 32 | 273 | 8.0 | 12.9 | 0.00 | 0.13 | 0.00 | 63 | 1003.1 |
| 20260905203035 | 32 | 218 | 6.4 | 16.1 | 0.00 | 0.13 | 0.00 | 63 | 1003.2 |
| 20260905202536 | 33 | 264 | 8.0 | 16.1 | 0.00 | 0.13 | 0.00 | 61 | 1003.2 |
| 20260905202035 | 32 | 261 | 6.4 | 17.7 | 0.00 | 0.13 | 0.00 | 62 | 1003.2 |
| 20260905201532 | 33 | 291 | 8.0 | 19.3 | 0.00 | 0.13 | 0.00 | 61 | 1003.3 |
| 20260905201031 | 33 | 254 | 8.0 | 19.3 | 0.00 | 0.13 | 0.00 | 61 | 1003.5 |
| 20260905200532 | 32 | 183 | 6.4 | 14.5 | 0.00 | 0.13 | 0.00 | 62 | 1003.6 |
| 20260905200034 | 32 | 253 | 6.4 | 14.5 | 0.00 | 0.13 | 0.00 | 62 | 1003.6 |
| 20260905195529 | 32 | 211 | 8.0 | 22.5 | 0.00 | 0.13 | 0.00 | 61 | 1003.7 |
| 20260905195027 | 31 | 278 | 9.7 | 16.1 | 0.00 | 0.13 | 0.00 | 64 | 1003.8 |
| 20260905194527 | 32 | 294 | 8.0 | 16.1 | 0.00 | 0.13 | 0.00 | 63 | 1003.8 |
| 20260905194026 | 32 | 274 | 9.7 | 17.7 | 0.00 | 0.13 | 0.00 | 64 | 1003.8 |
| 20260905193531 | 32 | 289 | 11.3 | 17.7 | 0.00 | 0.13 | 0.00 | 65 | 1003.9 |
| 20260905193028 | 31 | 272 | 3.2 | 14.5 | 0.00 | 0.13 | 0.00 | 67 | 1003.9 |
| 20260905192526 | 32 | 215 | 1.6 | 14.5 | 0.00 | 0.13 | 0.00 | 65 | 1004.1 |
| 20260905192023 | 32 | 236 | 6.4 | 14.5 | 0.00 | 0.13 | 0.00 | 65 | 1004.2 |
| 20260905191531 | 32 | 288 | 3.2 | 11.3 | 0.00 | 0.13 | 0.00 | 64 | 1004.2 |
| 20260905191025 | 32 | 273 | 4.8 | 11.3 | 0.00 | 0.13 | 0.00 | 65 | 1004.1 |
| 20260905190522 | 31 | 213 | 3.2 | 14.5 | 0.00 | 0.13 | 0.00 | 66 | 1004.3 |
| 20260905190031 | 31 | 286 | 6.4 | 14.5 | 0.00 | 0.13 | 0.00 | 69 | 1004.3 |
| 20260905185521 | 31 | 5 | 3.2 | 12.9 | 0.00 | 0.13 | 0.00 | 69 | 1004.4 |
| 20260905185022 | 31 | 327 | 4.8 | 12.9 | 0.00 | 0.13 | 0.00 | 68 | 1004.5 |
| 20260905184525 | 31 | 296 | 6.4 | 20.9 | 0.00 | 0.13 | 0.00 | 66 | 1004.6 |
| 20260905184022 | 32 | 259 | 4.8 | 14.5 | 0.00 | 0.13 | 0.00 | 65 | 1004.6 |
| 20260905183521 | 32 | 258 | 6.4 | 12.9 | 0.00 | 0.13 | 0.00 | 64 | 1004.7 |
| 20260905183019 | 31 | 236 | 3.2 | 14.5 | 0.00 | 0.13 | 0.00 | 68 | 1004.8 |
| 20260905182518 | 31 | 340 | 9.7 | 16.1 | 0.00 | 0.13 | 0.00 | 68 | 1004.9 |
| 20260905182018 | 31 | 288 | 8.0 | 16.1 | 0.00 | 0.13 | 0.00 | 68 | 1005.0 |
| 20260905181517 | 31 | 288 | 3.2 | 14.5 | 0.00 | 0.13 | 0.00 | 67 | 1004.9 |
| 20260905181017 | 31 | 234 | 8.0 | 14.5 | 0.00 | 0.13 | 0.00 | 67 | 1004.9 |
| 20260905180516 | 31 | 302 | 8.0 | 16.1 | 0.00 | 0.13 | 0.00 | 65 | 1005.0 |
| 20260905180016 | 31 | 243 | 8.0 | 19.3 | 0.00 | 0.13 | 0.00 | 67 | 1005.0 |
| 20260905175517 | 31 | 248 | 11.3 | 19.3 | 0.00 | 0.13 | 0.00 | 68 | 1005.1 |
| 20260905175019 | 31 | 240 | 11.3 | 16.1 | 0.00 | 0.13 | 0.00 | 68 | 1005.1 |
| 20260905174519 | 30 | 245 | 9.7 | 16.1 | 0.00 | 0.13 | 0.00 | 68 | 1005.1 |
| 20260905174013 | 31 | 312 | 8.0 | 12.9 | 0.00 | 0.13 | 0.00 | 70 | 1005.2 |
| 20260905173513 | 30 | 251 | 3.2 | 9.7 | 0.00 | 0.13 | 0.00 | 69 | 1005.4 |
| 20260905173014 | 30 | 219 | 3.2 | 12.9 | 0.00 | 0.13 | 0.00 | 71 | 1005.5 |
| 20260905172512 | 29 | 284 | 8.0 | 14.5 | 0.00 | 0.13 | 0.00 | 72 | 1005.7 |
| 20260905172113 | 29 | 264 | 9.7 | 16.1 | 0.00 | 0.13 | 0.00 | 72 | 1005.7 |
| 20260905171511 | 30 | 302 | 8.0 | 16.1 | 0.00 | 0.13 | 0.00 | 71 | 1005.8 |
| 20260905171010 | 30 | 300 | 8.0 | 14.5 | 0.00 | 0.13 | 0.00 | 70 | 1005.8 |
| 20260905170510 | 30 | 245 | 3.2 | 12.9 | 0.00 | 0.13 | 0.00 | 71 | 1005.8 |
| 20260905170010 | 30 | 273 | 8.0 | 16.1 | 0.00 | 0.13 | 0.00 | 74 | 1005.9 |
| 20260905165509 | 30 | 302 | 6.4 | 16.1 | 0.00 | 0.13 | 0.00 | 73 | 1005.9 |
| 20260905165009 | 30 | 290 | 1.6 | 11.3 | 0.00 | 0.13 | 0.00 | 72 | 1005.9 |
| 20260905164509 | 30 | 329 | 3.2 | 12.9 | 0.00 | 0.13 | 0.00 | 73 | 1005.9 |
| 20260905164009 | 30 | 262 | 4.8 | 12.9 | 0.00 | 0.13 | 0.00 | 70 | 1006.1 |
| 20260905163509 | 30 | 236 | 6.4 | 12.9 | 0.00 | 0.13 | 0.00 | 70 | 1006.1 |
| 20260905163007 | 30 | 236 | 4.8 | 12.9 | 0.00 | 0.13 | 0.00 | 72 | 1006.1 |
| 20260905162510 | 30 | 279 | 4.8 | 12.9 | 0.00 | 0.13 | 0.00 | 72 | 1006.2 |
| 20260905162006 | 30 | 238 | 4.8 | 12.9 | 0.00 | 0.13 | 0.00 | 73 | 1006.3 |
| 20260905161504 | 28 | 286 | 8.0 | 16.1 | 0.00 | 0.13 | 0.00 | 76 | 1006.3 |
| 20260905161003 | 29 | 292 | 8.0 | 16.1 | 0.00 | 0.13 | 0.00 | 74 | 1006.4 |
| 20260905160502 | 29 | 229 | 4.8 | 11.3 | 0.00 | 0.13 | 0.00 | 76 | 1006.5 |
| 20260905160001 | 28 | 302 | 3.2 | 14.5 | 0.00 | 0.13 | 0.00 | 78 | 1006.6 |
| 20260905155606 | 28 | 280 | 8.0 | 14.5 | 0.00 | 0.13 | 0.00 | 78 | 1006.6 |
| 20260905155059 | 28 | 306 | 3.2 | 12.9 | 0.00 | 0.13 | 0.00 | 80 | 1006.6 |
| 20260905154559 | 28 | 301 | 8.0 | 12.9 | 0.00 | 0.13 | 0.00 | 79 | 1006.7 |
| 20260905154101 | 27 | 270 | 4.8 | 11.3 | 0.00 | 0.13 | 0.00 | 81 | 1006.9 |
| 20260905153558 | 27 | 282 | 4.8 | 14.5 | 0.00 | 0.13 | 0.00 | 81 | 1006.9 |
| 20260905153109 | 27 | 290 | 8.0 | 12.9 | 0.00 | 0.13 | 0.00 | 80 | 1006.8 |
| 20260905152556 | 27 | 268 | 3.2 | 9.7 | 0.00 | 0.13 | 0.00 | 81 | 1006.9 |
| 20260905152055 | 27 | 355 | 3.2 | 11.3 | 0.00 | 0.13 | 0.00 | 82 | 1006.9 |
| 20260905151557 | 27 | 269 | 4.8 | 12.9 | 0.00 | 0.13 | 0.00 | 83 | 1006.9 |
| 20260905151053 | 27 | 288 | 4.8 | 12.9 | 0.00 | 0.13 | 0.00 | 83 | 1006.9 |
| 20260905150551 | 27 | 297 | 1.6 | 11.3 | 0.00 | 0.13 | 0.00 | 85 | 1006.9 |
| 20260905150054 | 26 | 277 | 4.8 | 12.9 | 0.00 | 0.13 | 0.00 | 85 | 1006.8 |
| 20260905145551 | 26 | 288 | 6.4 | 12.9 | 0.00 | 0.13 | 0.00 | 84 | 1006.8 |
| 20260905145049 | 26 | 11 | 3.2 | 12.9 | 0.00 | 0.13 | 0.00 | 87 | 1006.8 |
| 20260905144549 | 26 | 304 | 3.2 | 12.9 | 0.00 | 0.13 | 0.00 | 87 | 1006.8 |
| 20260905144051 | 26 | 281 | 3.2 | 8.0 | 0.00 | 0.13 | 0.00 | 88 | 1006.8 |
| 20260905143548 | 26 | 286 | 4.8 | 9.7 | 0.00 | 0.13 | 0.00 | 88 | 1006.8 |
| 20260905143046 | 25 | 266 | 4.8 | 9.7 | 0.00 | 0.13 | 0.00 | 88 | 1006.8 |
| 20260905142544 | 25 | 298 | 3.2 | 8.0 | 0.00 | 0.13 | 0.00 | 89 | 1006.8 |
| 20260905142044 | 25 | 294 | 6.4 | 9.7 | 0.00 | 0.13 | 0.00 | 89 | 1006.8 |
| 20260905141555 | 25 | 298 | 6.4 | 9.7 | 0.00 | 0.13 | 0.00 | 89 | 1006.8 |
| 20260905141044 | 25 | 252 | 3.2 | 11.3 | 0.00 | 0.13 | 0.00 | 90 | 1006.8 |
| 20260905140541 | 25 | 281 | 6.4 | 11.3 | 0.00 | 0.13 | 0.00 | 90 | 1006.7 |
| 20260905140041 | 25 | 263 | 3.2 | 11.3 | 0.00 | 0.13 | 0.00 | 91 | 1006.8 |
| 20260905135540 | 25 | 265 | 6.4 | 11.3 | 0.00 | 0.13 | 0.00 | 91 | 1006.9 |
| 20260905135040 | 25 | 286 | 3.2 | 11.3 | 0.00 | 0.13 | 0.00 | 91 | 1006.8 |
| 20260905134539 | 25 | 280 | 4.8 | 11.3 | 0.00 | 0.13 | 0.00 | 91 | 1006.8 |
| 20260905134039 | 25 | 270 | 6.4 | 9.7 | 0.00 | 0.13 | 0.00 | 91 | 1006.7 |
| 20260905133538 | 25 | 271 | 3.2 | 9.7 | 0.00 | 0.13 | 0.00 | 91 | 1006.8 |
| 20260905133037 | 24 | 271 | 4.8 | 9.7 | 0.00 | 0.13 | 0.00 | 92 | 1006.7 |
| 20260905132638 | 24 | 267 | 3.2 | 6.4 | 0.00 | 0.13 | 0.00 | 92 | 1006.8 |